Year,Month,Day,Hour,Minute,Value (Times are PST for temperature in C)
2015,02,03,00,00,7.70
2015,02,03,00,01,7.70
2015,02,03,00,02,7.70
2015,02,03,00,03,7.70
2015,02,03,00,04,7.70
2015,02,03,00,05,7.70
2015,02,03,00,06,7.70
2015,02,03,00,07,7.70
2015,02,03,00,08,7.70
2015,02,03,00,09,7.70
2015,02,03,00,10,7.60
2015,02,03,00,11,7.70
2015,02,03,00,12,7.70
2015,02,03,00,13,7.60
2015,02,03,00,14,7.60
2015,02,03,00,15,7.60
2015,02,03,00,16,7.60
2015,02,03,00,17,7.60
2015,02,03,00,18,7.60
2015,02,03,00,19,7.60
2015,02,03,00,20,7.60
2015,02,03,00,21,7.60
2015,02,03,00,22,7.60
2015,02,03,00,23,7.60
2015,02,03,00,24,7.60
2015,02,03,00,25,7.60
2015,02,03,00,26,7.60
2015,02,03,00,27,7.60
2015,02,03,00,28,7.60
2015,02,03,00,29,7.60
2015,02,03,00,30,7.60
2015,02,03,00,31,7.60
2015,02,03,00,32,7.60
2015,02,03,00,33,7.60
2015,02,03,00,34,7.60
2015,02,03,00,35,7.60
2015,02,03,00,36,7.60
2015,02,03,00,37,7.60
2015,02,03,00,38,7.60
2015,02,03,00,39,7.60
2015,02,03,00,40,7.60
2015,02,03,00,41,7.60
2015,02,03,00,42,7.60
2015,02,03,00,43,7.60
2015,02,03,00,44,7.70
2015,02,03,00,45,7.70
2015,02,03,00,46,7.70
2015,02,03,00,47,7.70
2015,02,03,00,48,7.70
2015,02,03,00,49,7.70
2015,02,03,00,50,7.70
2015,02,03,00,51,7.70
2015,02,03,00,52,7.70
2015,02,03,00,53,7.70
2015,02,03,00,54,7.70
2015,02,03,00,55,7.70
2015,02,03,00,56,7.70
2015,02,03,00,57,7.70
2015,02,03,00,58,7.70
2015,02,03,00,59,7.70
2015,02,03,01,00,7.70
2015,02,03,01,01,7.70
2015,02,03,01,02,7.70
2015,02,03,01,03,7.80
2015,02,03,01,04,7.80
2015,02,03,01,05,7.80
2015,02,03,01,06,7.80
2015,02,03,01,07,7.80
2015,02,03,01,08,7.80
2015,02,03,01,09,7.80
2015,02,03,01,10,7.80
2015,02,03,01,11,7.80
2015,02,03,01,12,7.80
2015,02,03,01,13,7.80
2015,02,03,01,14,7.80
2015,02,03,01,15,7.80
2015,02,03,01,16,7.80
2015,02,03,01,17,7.80
2015,02,03,01,18,7.80
2015,02,03,01,19,7.80
2015,02,03,01,20,7.80
2015,02,03,01,21,7.80
2015,02,03,01,22,7.80
2015,02,03,01,23,7.80
2015,02,03,01,24,7.80
2015,02,03,01,25,7.80
2015,02,03,01,26,7.80
2015,02,03,01,27,7.80
2015,02,03,01,28,7.80
2015,02,03,01,29,7.80
2015,02,03,01,30,7.80
2015,02,03,01,31,7.80
2015,02,03,01,32,7.80
2015,02,03,01,33,7.80
2015,02,03,01,34,7.80
2015,02,03,01,35,7.80
2015,02,03,01,36,7.80
2015,02,03,01,37,7.80
2015,02,03,01,38,7.80
2015,02,03,01,39,7.80
2015,02,03,01,40,7.80
2015,02,03,01,41,7.80
2015,02,03,01,42,7.80
2015,02,03,01,43,7.80
2015,02,03,01,44,7.80
2015,02,03,01,45,7.80
2015,02,03,01,46,7.80
2015,02,03,01,47,7.80
2015,02,03,01,48,7.80
2015,02,03,01,49,7.70
2015,02,03,01,50,7.70
2015,02,03,01,51,7.70
2015,02,03,01,52,7.70
2015,02,03,01,53,7.70
2015,02,03,01,54,7.70
2015,02,03,01,55,7.70
2015,02,03,01,56,7.70
2015,02,03,01,57,7.70
2015,02,03,01,58,7.70
2015,02,03,01,59,7.70
2015,02,03,02,00,7.70
2015,02,03,02,01,7.70
2015,02,03,02,02,7.70
2015,02,03,02,03,7.80
2015,02,03,02,04,7.80
2015,02,03,02,05,7.70
2015,02,03,02,06,7.80
2015,02,03,02,07,7.80
2015,02,03,02,08,7.80
2015,02,03,02,09,7.70
2015,02,03,02,10,7.70
2015,02,03,02,11,7.70
2015,02,03,02,12,7.70
2015,02,03,02,13,7.70
2015,02,03,02,14,7.70
2015,02,03,02,15,7.70
2015,02,03,02,16,7.70
2015,02,03,02,17,7.70
2015,02,03,02,18,7.70
2015,02,03,02,19,7.70
2015,02,03,02,20,7.70
2015,02,03,02,21,7.70
2015,02,03,02,22,7.70
2015,02,03,02,23,7.70
2015,02,03,02,24,7.80
2015,02,03,02,25,7.80
2015,02,03,02,26,7.80
2015,02,03,02,27,7.80
2015,02,03,02,28,7.80
2015,02,03,02,29,7.80
2015,02,03,02,30,7.80
2015,02,03,02,31,7.80
2015,02,03,02,32,7.80
2015,02,03,02,33,7.80
2015,02,03,02,34,7.80
2015,02,03,02,35,7.80
2015,02,03,02,36,7.80
2015,02,03,02,37,7.80
2015,02,03,02,38,7.80
2015,02,03,02,39,7.80
2015,02,03,02,40,7.80
2015,02,03,02,41,7.80
2015,02,03,02,42,7.80
2015,02,03,02,43,7.80
2015,02,03,02,44,7.80
2015,02,03,02,45,7.80
2015,02,03,02,46,7.80
2015,02,03,02,47,7.80
2015,02,03,02,48,7.80
2015,02,03,02,49,7.80
2015,02,03,02,50,7.80
2015,02,03,02,51,7.80
2015,02,03,02,52,7.80
2015,02,03,02,53,7.80
2015,02,03,02,54,7.80
2015,02,03,02,55,7.80
2015,02,03,02,56,7.80
2015,02,03,02,57,7.80
2015,02,03,02,58,7.80
2015,02,03,02,59,7.80
2015,02,03,03,00,7.80
2015,02,03,03,01,7.80
2015,02,03,03,02,7.80
2015,02,03,03,03,7.80
2015,02,03,03,04,7.80
2015,02,03,03,05,7.80
2015,02,03,03,06,7.80
2015,02,03,03,07,7.80
2015,02,03,03,08,7.80
2015,02,03,03,09,7.80
2015,02,03,03,10,7.80
2015,02,03,03,11,7.80
2015,02,03,03,12,7.80
2015,02,03,03,13,7.80
2015,02,03,03,14,7.80
2015,02,03,03,15,7.80
2015,02,03,03,16,7.80
2015,02,03,03,17,7.80
2015,02,03,03,18,7.80
2015,02,03,03,19,7.80
2015,02,03,03,20,7.80
2015,02,03,03,21,7.80
2015,02,03,03,22,7.80
2015,02,03,03,23,7.80
2015,02,03,03,24,7.80
2015,02,03,03,25,7.80
2015,02,03,03,26,7.80
2015,02,03,03,27,7.80
2015,02,03,03,28,7.80
2015,02,03,03,29,7.80
2015,02,03,03,30,7.80
2015,02,03,03,31,7.80
2015,02,03,03,32,7.80
2015,02,03,03,33,7.80
2015,02,03,03,34,7.80
2015,02,03,03,35,7.80
2015,02,03,03,36,7.80
2015,02,03,03,37,7.80
2015,02,03,03,38,7.80
2015,02,03,03,39,7.80
2015,02,03,03,40,7.80
2015,02,03,03,41,7.80
2015,02,03,03,42,7.80
2015,02,03,03,43,7.80
2015,02,03,03,44,7.80
2015,02,03,03,45,7.80
2015,02,03,03,46,7.80
2015,02,03,03,47,7.80
2015,02,03,03,48,7.80
2015,02,03,03,49,7.80
2015,02,03,03,50,7.80
2015,02,03,03,51,7.80
2015,02,03,03,52,7.80
2015,02,03,03,53,7.80
2015,02,03,03,54,7.80
2015,02,03,03,55,7.80
2015,02,03,03,56,7.80
2015,02,03,03,57,7.80
2015,02,03,03,58,7.80
2015,02,03,03,59,7.80
2015,02,03,04,00,7.80
2015,02,03,04,01,7.80
2015,02,03,04,02,7.80
2015,02,03,04,03,7.80
2015,02,03,04,04,7.80
2015,02,03,04,05,7.80
2015,02,03,04,06,7.80
2015,02,03,04,07,7.80
2015,02,03,04,08,7.80
2015,02,03,04,09,7.80
2015,02,03,04,10,7.80
2015,02,03,04,11,7.80
2015,02,03,04,12,7.80
2015,02,03,04,13,7.80
2015,02,03,04,14,7.80
2015,02,03,04,15,7.80
2015,02,03,04,16,7.80
2015,02,03,04,17,7.80
2015,02,03,04,18,7.80
2015,02,03,04,19,7.80
2015,02,03,04,20,7.70
2015,02,03,04,21,7.80
2015,02,03,04,22,7.80
2015,02,03,04,23,7.80
2015,02,03,04,24,7.80
2015,02,03,04,25,7.80
2015,02,03,04,26,7.80
2015,02,03,04,27,7.80
2015,02,03,04,28,7.80
2015,02,03,04,29,7.80
2015,02,03,04,30,7.80
2015,02,03,04,31,7.80
2015,02,03,04,32,7.80
2015,02,03,04,33,7.80
2015,02,03,04,34,7.80
2015,02,03,04,35,7.80
2015,02,03,04,36,7.80
2015,02,03,04,37,7.80
2015,02,03,04,38,7.80
2015,02,03,04,39,7.80
2015,02,03,04,40,7.80
2015,02,03,04,41,7.80
2015,02,03,04,42,7.80
2015,02,03,04,43,7.80
2015,02,03,04,44,7.80
2015,02,03,04,45,7.80
2015,02,03,04,46,7.80
2015,02,03,04,47,7.80
2015,02,03,04,48,7.80
2015,02,03,04,49,7.80
2015,02,03,04,50,7.80
2015,02,03,04,51,7.80
2015,02,03,04,52,7.80
2015,02,03,04,53,7.80
2015,02,03,04,54,7.80
2015,02,03,04,55,7.80
2015,02,03,04,56,7.80
2015,02,03,04,57,7.80
2015,02,03,04,58,7.80
2015,02,03,04,59,7.80
2015,02,03,05,00,7.80
2015,02,03,05,01,7.80
2015,02,03,05,02,7.80
2015,02,03,05,03,7.80
2015,02,03,05,04,7.80
2015,02,03,05,05,7.80
2015,02,03,05,06,7.80
2015,02,03,05,07,7.80
2015,02,03,05,08,7.80
2015,02,03,05,09,7.80
2015,02,03,05,10,7.80
2015,02,03,05,11,7.80
2015,02,03,05,12,7.80
2015,02,03,05,13,7.80
2015,02,03,05,14,7.80
2015,02,03,05,15,7.80
2015,02,03,05,16,7.80
2015,02,03,05,17,7.80
2015,02,03,05,18,7.80
2015,02,03,05,19,7.80
2015,02,03,05,20,7.80
2015,02,03,05,21,7.80
2015,02,03,05,22,7.80
2015,02,03,05,23,7.80
2015,02,03,05,24,7.80
2015,02,03,05,25,7.70
2015,02,03,05,26,7.70
2015,02,03,05,27,7.70
2015,02,03,05,28,7.70
2015,02,03,05,29,7.70
2015,02,03,05,30,7.70
2015,02,03,05,31,7.60
2015,02,03,05,32,7.60
2015,02,03,05,33,7.60
2015,02,03,05,34,7.60
2015,02,03,05,35,7.60
2015,02,03,05,36,7.60
2015,02,03,05,37,7.60
2015,02,03,05,38,7.60
2015,02,03,05,39,7.60
2015,02,03,05,40,7.60
2015,02,03,05,41,7.60
2015,02,03,05,42,7.60
2015,02,03,05,43,7.60
2015,02,03,05,44,7.50
2015,02,03,05,45,7.50
2015,02,03,05,46,7.50
2015,02,03,05,47,7.50
2015,02,03,05,48,7.50
2015,02,03,05,49,7.60
2015,02,03,05,50,7.60
2015,02,03,05,51,7.60
2015,02,03,05,52,7.60
2015,02,03,05,53,7.60
2015,02,03,05,54,7.60
2015,02,03,05,55,7.60
2015,02,03,05,56,7.60
2015,02,03,05,57,7.60
2015,02,03,05,58,7.60
2015,02,03,05,59,7.60
2015,02,03,06,00,7.60
2015,02,03,06,01,7.60
2015,02,03,06,02,7.60
2015,02,03,06,03,7.60
2015,02,03,06,04,7.60
2015,02,03,06,05,7.50
2015,02,03,06,06,7.50
2015,02,03,06,07,7.50
2015,02,03,06,08,7.50
2015,02,03,06,09,7.50
2015,02,03,06,10,7.40
2015,02,03,06,11,7.40
2015,02,03,06,12,7.40
2015,02,03,06,13,7.40
2015,02,03,06,14,7.40
2015,02,03,06,15,7.40
2015,02,03,06,16,7.40
2015,02,03,06,17,7.40
2015,02,03,06,18,7.40
2015,02,03,06,19,7.40
2015,02,03,06,20,7.40
2015,02,03,06,21,7.40
2015,02,03,06,22,7.40
2015,02,03,06,23,7.30
2015,02,03,06,24,7.30
2015,02,03,06,25,7.30
2015,02,03,06,26,7.30
2015,02,03,06,27,7.30
2015,02,03,06,28,7.30
2015,02,03,06,29,7.30
2015,02,03,06,30,7.30
2015,02,03,06,31,7.30
2015,02,03,06,32,7.30
2015,02,03,06,33,7.30
2015,02,03,06,34,7.30
2015,02,03,06,35,7.30
2015,02,03,06,36,7.30
2015,02,03,06,37,7.30
2015,02,03,06,38,7.30
2015,02,03,06,39,7.30
2015,02,03,06,40,7.30
2015,02,03,06,41,7.30
2015,02,03,06,42,7.30
2015,02,03,06,43,7.30
2015,02,03,06,44,7.30
2015,02,03,06,45,7.30
2015,02,03,06,46,7.30
2015,02,03,06,47,7.30
2015,02,03,06,48,7.20
2015,02,03,06,49,7.20
2015,02,03,06,50,7.20
2015,02,03,06,51,7.20
2015,02,03,06,52,7.20
2015,02,03,06,53,7.20
2015,02,03,06,54,7.20
2015,02,03,06,55,7.20
2015,02,03,06,56,7.20
2015,02,03,06,57,7.20
2015,02,03,06,58,7.20
2015,02,03,06,59,7.20
2015,02,03,07,00,7.20
2015,02,03,07,01,7.20
2015,02,03,07,02,7.20
2015,02,03,07,03,7.20
2015,02,03,07,04,7.20
2015,02,03,07,05,7.20
2015,02,03,07,06,7.20
2015,02,03,07,07,7.20
2015,02,03,07,08,7.20
2015,02,03,07,09,7.20
2015,02,03,07,10,7.20
2015,02,03,07,11,7.20
2015,02,03,07,12,7.20
2015,02,03,07,13,7.20
2015,02,03,07,14,7.20
2015,02,03,07,15,7.20
2015,02,03,07,16,7.20
2015,02,03,07,17,7.20
2015,02,03,07,18,7.20
2015,02,03,07,19,7.20
2015,02,03,07,20,7.20
2015,02,03,07,21,7.20
2015,02,03,07,22,7.20
2015,02,03,07,23,7.20
2015,02,03,07,24,7.20
2015,02,03,07,25,7.20
2015,02,03,07,26,7.20
2015,02,03,07,27,7.20
2015,02,03,07,28,7.20
2015,02,03,07,29,7.20
2015,02,03,07,30,7.20
2015,02,03,07,31,7.20
2015,02,03,07,32,7.30
2015,02,03,07,33,7.20
2015,02,03,07,34,7.20
2015,02,03,07,35,7.30
2015,02,03,07,36,7.30
2015,02,03,07,37,7.20
2015,02,03,07,38,7.20
2015,02,03,07,39,7.20
2015,02,03,07,40,7.20
2015,02,03,07,41,7.20
2015,02,03,07,42,7.20
2015,02,03,07,43,7.20
2015,02,03,07,44,7.20
2015,02,03,07,45,7.20
2015,02,03,07,46,7.20
2015,02,03,07,47,7.20
2015,02,03,07,48,7.20
2015,02,03,07,49,7.20
2015,02,03,07,50,7.20
2015,02,03,07,51,7.20
2015,02,03,07,52,7.20
2015,02,03,07,53,7.20
2015,02,03,07,54,7.20
2015,02,03,07,55,7.20
2015,02,03,07,56,7.20
2015,02,03,07,57,7.20
2015,02,03,07,58,7.20
2015,02,03,07,59,7.20
2015,02,03,08,00,7.20
2015,02,03,08,01,7.20
2015,02,03,08,02,7.20
2015,02,03,08,03,7.20
2015,02,03,08,04,7.20
2015,02,03,08,05,7.20
2015,02,03,08,06,7.20
2015,02,03,08,07,7.20
2015,02,03,08,08,7.20
2015,02,03,08,09,7.20
2015,02,03,08,10,7.20
2015,02,03,08,11,7.20
2015,02,03,08,12,7.20
2015,02,03,08,13,7.20
2015,02,03,08,14,7.20
2015,02,03,08,15,7.20
2015,02,03,08,16,7.20
2015,02,03,08,17,7.20
2015,02,03,08,18,7.20
2015,02,03,08,19,7.20
2015,02,03,08,20,7.20
2015,02,03,08,21,7.20
2015,02,03,08,22,7.20
2015,02,03,08,23,7.20
2015,02,03,08,24,7.20
2015,02,03,08,25,7.20
2015,02,03,08,26,7.20
2015,02,03,08,27,7.20
2015,02,03,08,28,7.20
2015,02,03,08,29,7.20
2015,02,03,08,30,7.20
2015,02,03,08,31,7.20
2015,02,03,08,32,7.20
2015,02,03,08,33,7.20
2015,02,03,08,34,7.20
2015,02,03,08,35,7.20
2015,02,03,08,36,7.20
2015,02,03,08,37,7.20
2015,02,03,08,38,7.20
2015,02,03,08,39,7.20
2015,02,03,08,40,7.20
2015,02,03,08,41,7.20
2015,02,03,08,42,7.20
2015,02,03,08,43,7.20
2015,02,03,08,44,7.20
2015,02,03,08,45,7.20
2015,02,03,08,46,7.20
2015,02,03,08,47,7.20
2015,02,03,08,48,7.20
2015,02,03,08,49,7.20
2015,02,03,08,50,7.20
2015,02,03,08,51,7.20
2015,02,03,08,52,7.20
2015,02,03,08,53,7.30
2015,02,03,08,54,7.30
2015,02,03,08,55,7.30
2015,02,03,08,56,7.30
2015,02,03,08,57,7.30
2015,02,03,08,58,7.30
2015,02,03,08,59,7.30
2015,02,03,09,00,7.30
2015,02,03,09,01,7.30
2015,02,03,09,02,7.30
2015,02,03,09,03,7.30
2015,02,03,09,04,7.30
2015,02,03,09,05,7.30
2015,02,03,09,06,7.30
2015,02,03,09,07,7.30
2015,02,03,09,08,7.30
2015,02,03,09,09,7.30
2015,02,03,09,10,7.30
2015,02,03,09,11,7.30
2015,02,03,09,12,7.30
2015,02,03,09,13,7.30
2015,02,03,09,14,7.30
2015,02,03,09,15,7.30
2015,02,03,09,16,7.30
2015,02,03,09,17,7.30
2015,02,03,09,18,7.30
2015,02,03,09,19,7.30
2015,02,03,09,20,7.30
2015,02,03,09,21,7.30
2015,02,03,09,22,7.30
2015,02,03,09,23,7.30
2015,02,03,09,24,7.30
2015,02,03,09,25,7.30
2015,02,03,09,26,7.30
2015,02,03,09,27,7.30
2015,02,03,09,28,7.30
2015,02,03,09,29,7.20
2015,02,03,09,30,7.20
2015,02,03,09,31,7.20
2015,02,03,09,32,7.20
2015,02,03,09,33,7.20
2015,02,03,09,34,7.20
2015,02,03,09,35,7.20
2015,02,03,09,36,7.20
2015,02,03,09,37,7.20
2015,02,03,09,38,7.20
2015,02,03,09,39,7.20
2015,02,03,09,40,7.20
2015,02,03,09,41,7.20
2015,02,03,09,42,7.20
2015,02,03,09,43,7.20
2015,02,03,09,44,7.20
2015,02,03,09,45,7.20
2015,02,03,09,46,7.20
2015,02,03,09,47,7.20
2015,02,03,09,48,7.20
2015,02,03,09,49,7.20
2015,02,03,09,50,7.20
2015,02,03,09,51,7.20
2015,02,03,09,52,7.20
2015,02,03,09,53,7.20
2015,02,03,09,54,7.20
2015,02,03,09,55,7.20
2015,02,03,09,56,7.20
2015,02,03,09,57,7.20
2015,02,03,09,58,7.20
2015,02,03,09,59,7.20
2015,02,03,10,00,7.20
2015,02,03,10,35,7.50
2015,02,03,10,36,7.50
2015,02,03,10,37,7.50
2015,02,03,10,38,7.50
2015,02,03,10,39,7.40
2015,02,03,10,40,7.40
2015,02,03,10,41,7.40
2015,02,03,10,42,7.40
2015,02,03,10,43,7.40
2015,02,03,10,44,7.40
2015,02,03,10,45,7.40
2015,02,03,10,46,7.40
2015,02,03,10,47,7.40
2015,02,03,10,48,7.40
2015,02,03,10,49,7.40
2015,02,03,10,50,7.40
2015,02,03,10,51,7.40
2015,02,03,10,52,7.40
2015,02,03,10,53,7.40
2015,02,03,10,54,7.30
2015,02,03,10,55,7.40
2015,02,03,10,56,7.40
2015,02,03,10,57,7.40
2015,02,03,10,58,7.40
2015,02,03,10,59,7.40
2015,02,03,11,00,7.40
2015,02,03,11,01,7.40
2015,02,03,11,02,7.40
2015,02,03,11,03,7.40
2015,02,03,11,04,7.40
2015,02,03,11,05,7.40
2015,02,03,11,06,7.40
2015,02,03,11,07,7.40
2015,02,03,11,08,7.40
2015,02,03,11,09,7.40
2015,02,03,11,10,7.40
2015,02,03,11,11,7.50
2015,02,03,11,12,7.60
2015,02,03,11,13,7.60
2015,02,03,11,14,7.60
2015,02,03,11,15,7.60
2015,02,03,11,16,7.60
2015,02,03,11,17,7.60
2015,02,03,11,18,7.60
2015,02,03,11,19,7.60
2015,02,03,11,20,7.60
2015,02,03,11,21,7.60
2015,02,03,11,22,7.60
2015,02,03,11,23,7.60
2015,02,03,11,24,7.60
2015,02,03,11,25,7.60
2015,02,03,11,26,7.60
2015,02,03,11,27,7.60
2015,02,03,11,28,7.60
2015,02,03,11,29,7.60
2015,02,03,11,30,7.60
2015,02,03,11,31,7.60
2015,02,03,11,32,7.70
2015,02,03,11,33,7.70
2015,02,03,11,34,7.70
2015,02,03,11,35,7.70
2015,02,03,11,36,7.70
2015,02,03,11,37,7.70
2015,02,03,11,38,7.70
2015,02,03,11,39,7.80
2015,02,03,11,40,7.80
2015,02,03,11,41,7.80
2015,02,03,11,42,7.80
2015,02,03,11,43,7.80
2015,02,03,11,44,7.80
2015,02,03,11,45,7.80
2015,02,03,11,46,7.80
2015,02,03,11,47,7.80
2015,02,03,11,48,7.80
2015,02,03,11,49,7.80
2015,02,03,11,50,7.90
2015,02,03,11,51,7.90
2015,02,03,11,52,7.90
2015,02,03,11,53,7.90
2015,02,03,11,54,7.90
2015,02,03,11,55,7.80
2015,02,03,11,56,7.90
2015,02,03,11,57,7.80
2015,02,03,11,58,7.80
2015,02,03,11,59,7.90
2015,02,03,12,00,7.90
2015,02,03,12,01,7.90
2015,02,03,12,02,7.80
2015,02,03,12,03,7.90
2015,02,03,12,04,7.90
2015,02,03,12,05,7.90
2015,02,03,12,06,7.90
2015,02,03,12,07,7.90
2015,02,03,12,08,7.90
2015,02,03,12,09,7.90
2015,02,03,12,10,7.90
2015,02,03,12,11,8.00
2015,02,03,12,12,8.00
2015,02,03,12,13,8.00
2015,02,03,12,14,8.10
2015,02,03,12,15,8.10
2015,02,03,12,16,8.10
2015,02,03,12,17,8.10
2015,02,03,12,18,8.10
2015,02,03,12,19,8.10
2015,02,03,12,20,8.10
2015,02,03,12,21,8.10
2015,02,03,12,22,8.10
2015,02,03,12,23,8.10
2015,02,03,12,24,8.10
2015,02,03,12,25,8.10
2015,02,03,12,26,8.10
2015,02,03,12,27,8.10
2015,02,03,12,28,8.10
2015,02,03,12,29,8.10
2015,02,03,12,30,8.10
2015,02,03,12,31,8.10
2015,02,03,12,32,8.10
2015,02,03,12,33,8.10
2015,02,03,12,34,8.10
2015,02,03,12,35,8.10
2015,02,03,12,36,8.10
2015,02,03,12,37,8.10
2015,02,03,12,38,8.10
2015,02,03,12,39,8.10
2015,02,03,12,40,8.20
2015,02,03,12,41,8.20
2015,02,03,12,42,8.20
2015,02,03,12,43,8.20
2015,02,03,12,44,8.20
2015,02,03,12,45,8.20
2015,02,03,12,46,8.20
2015,02,03,12,47,8.10
2015,02,03,12,48,8.10
2015,02,03,12,49,8.10
2015,02,03,12,50,8.10
2015,02,03,12,51,8.10
2015,02,03,12,52,8.10
2015,02,03,12,53,8.10
2015,02,03,12,54,8.10
2015,02,03,12,55,8.10
2015,02,03,12,56,8.10
2015,02,03,12,57,8.10
2015,02,03,12,58,8.10
2015,02,03,12,59,8.10
2015,02,03,13,00,8.10
2015,02,03,13,01,8.10
2015,02,03,13,02,8.10
2015,02,03,13,03,8.10
2015,02,03,13,04,8.10
2015,02,03,13,05,8.10
2015,02,03,13,06,8.10
2015,02,03,13,07,8.10
2015,02,03,13,08,8.10
2015,02,03,13,09,8.10
2015,02,03,13,10,8.10
2015,02,03,13,11,8.10
2015,02,03,13,12,8.10
2015,02,03,13,13,8.10
2015,02,03,13,14,8.10
2015,02,03,13,15,8.10
2015,02,03,13,16,8.10
2015,02,03,13,17,8.00
2015,02,03,13,18,8.00
2015,02,03,13,19,8.00
2015,02,03,13,20,8.00
2015,02,03,13,21,8.00
2015,02,03,13,22,8.00
2015,02,03,13,23,8.00
2015,02,03,13,24,8.00
2015,02,03,13,25,8.00
2015,02,03,13,26,8.00
2015,02,03,13,27,8.00
2015,02,03,13,28,8.00
2015,02,03,13,29,8.00
2015,02,03,13,30,8.10
2015,02,03,13,31,8.00
2015,02,03,13,32,8.00
2015,02,03,13,33,8.00
2015,02,03,13,34,8.00
2015,02,03,13,35,8.00
2015,02,03,13,36,7.90
2015,02,03,13,37,7.90
2015,02,03,13,38,7.90
2015,02,03,13,39,7.90
2015,02,03,13,40,7.90
2015,02,03,13,41,8.00
2015,02,03,13,42,8.00
2015,02,03,13,43,8.00
2015,02,03,13,44,8.00
2015,02,03,13,45,8.00
2015,02,03,13,46,8.00
2015,02,03,13,47,8.00
2015,02,03,13,48,8.00
2015,02,03,13,49,8.00
2015,02,03,13,50,8.00
2015,02,03,13,51,8.00
2015,02,03,13,52,8.00
2015,02,03,13,53,8.00
2015,02,03,13,54,8.00
2015,02,03,13,55,8.00
2015,02,03,13,56,8.00
2015,02,03,13,57,8.00
2015,02,03,13,58,8.00
2015,02,03,13,59,8.00
2015,02,03,14,00,8.00
2015,02,03,14,01,8.10
2015,02,03,14,02,8.10
2015,02,03,14,03,8.10
2015,02,03,14,04,8.10
2015,02,03,14,05,8.10
2015,02,03,14,06,8.10
2015,02,03,14,07,8.10
2015,02,03,14,08,8.10
2015,02,03,14,09,8.10
2015,02,03,14,10,8.10
2015,02,03,14,11,8.10
2015,02,03,14,12,8.10
2015,02,03,14,13,8.10
2015,02,03,17,53,7.90
2015,02,03,17,54,7.90
2015,02,03,17,55,7.90
2015,02,03,17,56,7.90
2015,02,03,17,57,7.90
2015,02,03,17,58,7.90
2015,02,03,17,59,7.90
2015,02,03,18,00,7.90
2015,02,03,18,01,7.90
2015,02,03,18,02,7.90
2015,02,03,18,03,7.90
2015,02,03,18,04,7.90
2015,02,03,18,05,7.90
2015,02,03,18,06,7.90
2015,02,03,18,07,7.90
2015,02,03,18,08,7.90
2015,02,03,18,09,7.90
2015,02,03,18,10,7.90
2015,02,03,18,11,7.90
2015,02,03,18,12,7.90
2015,02,03,18,13,7.90
2015,02,03,18,14,7.90
2015,02,03,18,15,7.90
2015,02,03,18,16,7.90
2015,02,03,18,17,7.90
2015,02,03,18,18,7.90
2015,02,03,18,19,7.90
2015,02,03,18,20,7.90
2015,02,03,18,21,7.90
2015,02,03,18,22,7.90
2015,02,03,18,23,7.80
2015,02,03,18,24,7.80
2015,02,03,18,25,7.80
2015,02,03,18,26,7.80
2015,02,03,18,27,7.80
2015,02,03,18,28,7.80
2015,02,03,18,29,7.80
2015,02,03,18,30,7.80
2015,02,03,18,31,7.80
2015,02,03,18,32,7.80
2015,02,03,18,33,7.80
2015,02,03,18,34,7.80
2015,02,03,18,35,7.80
2015,02,03,18,36,7.80
2015,02,03,18,37,7.80
2015,02,03,18,38,7.80
2015,02,03,18,39,7.80
2015,02,03,18,40,7.80
2015,02,03,18,41,7.80
2015,02,03,18,42,7.80
2015,02,03,18,43,7.80
2015,02,03,18,44,7.80
2015,02,03,18,45,7.80
2015,02,03,18,46,7.80
2015,02,03,18,47,7.80
2015,02,03,18,48,7.80
2015,02,03,18,49,7.80
2015,02,03,18,50,7.80
2015,02,03,18,51,7.80
2015,02,03,18,52,7.80
2015,02,03,18,53,7.80
2015,02,03,18,54,7.80
2015,02,03,18,55,7.80
2015,02,03,18,56,7.80
2015,02,03,18,57,7.80
2015,02,03,18,58,7.80
2015,02,03,18,59,7.80
2015,02,03,19,00,7.80
2015,02,03,19,01,7.80
2015,02,03,19,02,7.80
2015,02,03,19,03,7.80
2015,02,03,19,04,7.80
2015,02,03,19,05,7.80
2015,02,03,19,06,7.80
2015,02,03,19,07,7.80
2015,02,03,19,08,7.80
2015,02,03,19,09,7.80
2015,02,03,19,10,7.80
2015,02,03,19,11,7.80
2015,02,03,19,12,7.80
2015,02,03,19,13,7.80
2015,02,03,19,14,7.80
2015,02,03,19,15,7.80
2015,02,03,19,16,7.80
2015,02,03,19,17,7.80
2015,02,03,19,18,7.80
2015,02,03,19,19,7.80
2015,02,03,19,20,7.80
2015,02,03,19,21,7.80
2015,02,03,19,22,7.80
2015,02,03,19,23,7.80
2015,02,03,19,24,7.80
2015,02,03,19,25,7.80
2015,02,03,19,26,7.80
2015,02,03,19,27,7.80
2015,02,03,19,28,7.80
2015,02,03,19,29,7.80
2015,02,03,19,30,7.80
2015,02,03,19,31,7.80
2015,02,03,19,32,7.80
2015,02,03,19,33,7.80
2015,02,03,19,34,7.80
2015,02,03,19,35,7.80
2015,02,03,19,36,7.80
2015,02,03,19,37,7.80
2015,02,03,19,38,7.80
2015,02,03,19,39,7.80
2015,02,03,19,40,7.80
2015,02,03,19,41,7.80
2015,02,03,19,42,7.80
2015,02,03,19,43,7.80
2015,02,03,19,44,7.80
2015,02,03,19,45,7.80
2015,02,03,19,46,7.80
2015,02,03,19,47,7.80
2015,02,03,19,48,7.80
2015,02,03,19,49,7.80
2015,02,03,19,50,7.80
2015,02,03,19,51,7.80
2015,02,03,19,52,7.80
2015,02,03,19,53,7.80
2015,02,03,19,54,7.80
2015,02,03,19,55,7.80
2015,02,03,19,56,7.80
2015,02,03,19,57,7.80
2015,02,03,19,58,7.80
2015,02,03,19,59,7.80
2015,02,03,20,00,7.80
2015,02,03,20,01,7.80
2015,02,03,20,02,7.80
2015,02,03,20,03,7.80
2015,02,03,20,04,7.80
2015,02,03,20,05,7.80
2015,02,03,20,06,7.80
2015,02,03,20,07,7.80
2015,02,03,20,08,7.80
2015,02,03,20,09,7.80
2015,02,03,20,10,7.80
2015,02,03,20,11,7.80
2015,02,03,20,12,7.80
2015,02,03,20,13,7.80
2015,02,03,20,14,7.80
2015,02,03,20,15,7.80
2015,02,03,20,16,7.80
2015,02,03,20,17,7.80
2015,02,03,20,18,7.80
2015,02,03,20,19,7.80
2015,02,03,20,20,7.80
2015,02,03,20,21,7.80
2015,02,03,20,22,7.80
2015,02,03,20,23,7.80
2015,02,03,20,24,7.80
2015,02,03,20,25,7.80
2015,02,03,20,26,7.80
2015,02,03,20,27,7.80
2015,02,03,20,28,7.80
2015,02,03,20,29,7.80
2015,02,03,20,30,7.80
2015,02,03,20,31,7.80
2015,02,03,20,32,7.80
2015,02,03,20,33,7.80
2015,02,03,20,34,7.80
2015,02,03,20,35,7.80
2015,02,03,20,36,7.80
2015,02,03,20,37,7.80
2015,02,03,20,38,7.80
2015,02,03,20,39,7.80
2015,02,03,20,40,7.80
2015,02,03,20,41,7.80
2015,02,03,20,42,7.80
2015,02,03,20,43,7.80
2015,02,03,20,44,7.80
2015,02,03,20,45,7.80
2015,02,03,20,46,7.80
2015,02,03,20,47,7.80
2015,02,03,20,48,7.80
2015,02,03,20,49,7.80
2015,02,03,20,50,7.80
2015,02,03,20,51,7.80
2015,02,03,20,52,7.80
2015,02,03,20,53,7.80
2015,02,03,20,54,7.80
2015,02,03,20,55,7.80
2015,02,03,20,56,7.80
2015,02,03,20,57,7.80
2015,02,03,20,58,7.80
2015,02,03,20,59,7.80
2015,02,03,21,00,7.80
2015,02,03,21,01,7.80
2015,02,03,21,02,7.80
2015,02,03,21,03,7.80
2015,02,03,21,04,7.80
2015,02,03,21,05,7.80
2015,02,03,21,06,7.80
2015,02,03,21,07,7.80
2015,02,03,21,08,7.80
2015,02,03,21,09,7.80
2015,02,03,21,10,7.80
2015,02,03,21,11,7.80
2015,02,03,21,12,7.80
2015,02,03,21,13,7.80
2015,02,03,21,14,7.80
2015,02,03,21,15,7.80
2015,02,03,21,16,7.80
2015,02,03,21,17,7.80
2015,02,03,21,18,7.80
2015,02,03,21,19,7.80
2015,02,03,21,20,7.80
2015,02,03,21,21,7.80
2015,02,03,21,22,7.80
2015,02,03,21,23,7.80
2015,02,03,21,24,7.80
2015,02,03,21,25,7.80
2015,02,03,21,26,7.80
2015,02,03,21,27,7.80
2015,02,03,21,28,7.80
2015,02,03,21,29,7.80
2015,02,03,21,30,7.80
2015,02,03,21,31,7.80
2015,02,03,21,32,7.80
2015,02,03,21,33,7.80
2015,02,03,21,34,7.80
2015,02,03,21,35,7.80
2015,02,03,21,36,7.80
2015,02,03,21,37,7.80
2015,02,03,21,38,7.80
2015,02,03,21,39,7.80
2015,02,03,21,40,7.80
2015,02,03,21,41,7.80
2015,02,03,21,42,7.80
2015,02,03,21,43,7.80
2015,02,03,21,44,7.80
2015,02,03,21,45,7.80
2015,02,03,21,46,7.80
2015,02,03,21,47,7.80
2015,02,03,21,48,7.80
2015,02,03,21,49,7.80
2015,02,03,21,50,7.80
2015,02,03,21,51,7.80
2015,02,03,21,52,7.80
2015,02,03,21,53,7.80
2015,02,03,21,54,7.80
2015,02,03,21,55,7.80
2015,02,03,21,56,7.80
2015,02,03,21,57,7.80
2015,02,03,21,58,7.80
2015,02,03,21,59,7.80
2015,02,03,22,00,7.80
2015,02,03,22,01,7.80
2015,02,03,22,02,7.80
2015,02,03,22,03,7.80
2015,02,03,22,04,7.80
2015,02,03,22,05,7.80
2015,02,03,22,06,7.80
2015,02,03,22,07,7.80
2015,02,03,22,08,7.80
2015,02,03,22,09,7.80
2015,02,03,22,10,7.80
2015,02,03,22,11,7.80
2015,02,03,22,12,7.80
2015,02,03,22,13,7.80
2015,02,03,22,14,7.80
2015,02,03,22,15,7.80
2015,02,03,22,16,7.80
2015,02,03,22,17,7.80
2015,02,03,22,18,7.80
2015,02,03,22,19,7.80